[[{"header":{"parameterUnit":"m.s-1","parameterCategory":1,"la1":30.2991,"la2":30.254,"lo1":-89.0895,"lo2":-89.0444,"dy":0.0017,"dx":0.0017,"nx":28,"ny":28,"refTime":"2024-05-17T21:00:00:Z","depth":0,"parameterNumber":2,"parameterNumberName":"U-component_of_WINDS"},"data":[0,0,0,0,0,0,0,0,0,0,0,0,0,0,0,0,0,0,0,0,0,0,0,0,0,0,0,0,0,0,0,0,0,0,0,0,0,0,0,0,0,0,0,0,0,0,0,0,0,0,0,0,0,0,0,0,0,0,-0.8996,-0.8995,0,-0.893,-0.8929,-0.8928,-0.8877,-0.8876,-0.8876,-0.8875,-0.8807,-0.8805,-0.8804,0,0,0,0,0,0,0,0,0,0,0,0,0,-0.9076,-0.9075,-0.8996,-0.8995,-0.8994,-0.893,-0.8929,-0.8928,-0.8877,-0.8876,-0.8876,-0.8875,-0.8807,-0.8806,-0.8804,0,0,0,0,0,0,0,0,0,0,0,0,0,-0.9029,-0.9075,-0.8996,-0.8961,-0.8957,-0.893,-0.8929,-0.8928,-0.8877,-0.8876,-0.8876,-0.8875,-0.8808,-0.8806,-0.8804,-0.8806,0,0,-0.8797,-0.8797,0,0,0,0,0,0,0,0,-0.9032,-0.9026,-0.8967,-0.8963,-0.8959,-0.8911,-0.8932,-0.8887,-0.8877,-0.8907,-0.8875,-0.8875,-0.8842,-0.8837,-0.8826,-0.8802,-0.8799,-0.8797,-0.8796,-0.8795,-0.8795,0,0,0,0,0,0,0,-0.9035,-0.9029,-0.897,-0.8966,-0.8961,-0.8948,-0.894,-0.8923,-0.888,-0.8905,-0.8901,-0.8894,-0.884,-0.8828,-0.8824,-0.8798,-0.8797,-0.8795,-0.8794,-0.8793,-0.8772,-0.8773,0,0,0,0,0,0,-0.9044,-0.9032,-0.8972,-0.8968,-0.8994,-0.8947,-0.8939,-0.8927,-0.888,-0.8872,-0.8894,-0.8892,-0.8832,-0.8827,-0.8822,-0.882,-0.8795,-0.8793,-0.8792,-0.8771,-0.8772,-0.8773,0,0,0,0,0,0,-0.9046,-0.9039,-0.8974,-0.8999,-0.8989,-0.8947,-0.8934,-0.8926,-0.8915,-0.8872,-0.8864,-0.8891,-0.8831,-0.8824,-0.881,-0.8817,-0.8792,-0.879,-0.877,-0.8772,-0.8772,-0.8819,0,0,0,0,0,0,-0.9049,-0.904,-0.9041,-0.8999,-0.8988,-0.8965,-0.8934,-0.8925,-0.8911,-0.8907,-0.8866,-0.8859,-0.883,-0.8813,-0.8808,-0.8814,-0.8789,-0.877,-0.8771,-0.8772,-0.8816,-0.8821,-0.8825,0,0,0,0,0,-0.9052,-0.9057,-0.9041,-0.9034,-0.8988,-0.8965,-0.8959,-0.8926,-0.8912,-0.8912,-0.8885,-0.886,-0.8817,-0.8812,-0.8806,-0.8811,-0.8769,-0.8771,-0.8772,-0.8814,-0.882,-0.8825,0,0,0,0,0,0,-0.9101,-0.9051,-0.9033,-0.9025,-0.9,-0.8957,-0.8956,-0.8933,-0.8911,-0.8908,-0.8868,-0.8859,-0.8849,-0.8828,-0.8823,-0.881,-0.879,-0.879,-0.8824,-0.8829,-0.8834,-0.8839,-0.8787,0,0,0,0,0,-0.9111,-0.9096,-0.9053,-0.905,-0.9038,-0.8999,-0.8988,-0.8964,-0.8937,-0.8926,-0.8897,-0.887,-0.8851,-0.8839,-0.8818,-0.8813,-0.8803,-0.8813,-0.8818,-0.8822,-0.8823,-0.8817,-0.8822,-0.8778,-0.8778,-0.8778,0,0,-0.9131,-0.9102,-0.9095,-0.9059,-0.9037,-0.9022,-0.8991,-0.8977,-0.8966,-0.8923,-0.8908,-0.8886,-0.8853,-0.8843,-0.8837,-0.8826,-0.8832,-0.8823,-0.8827,-0.8826,-0.8819,-0.8824,-0.8827,-0.8779,-0.8779,-0.8778,0,0,-0.9161,-0.9137,-0.9132,-0.911,-0.9077,-0.9051,-0.9049,-0.9009,-0.8993,-0.8977,-0.8945,-0.893,-0.8897,-0.8876,-0.886,-0.888,-0.8857,-0.8875,-0.8898,-0.8894,-0.8897,-0.89,-0.8908,-0.8911,-0.8875,-0.8876,-0.8876,0,-0.9191,-0.9168,-0.9132,-0.912,-0.9105,-0.9066,-0.906,-0.904,-0.9002,-0.8992,-0.8979,-0.8937,-0.8912,-0.8896,-0.8901,-0.889,-0.8887,-0.888,-0.89,-0.8902,-0.8904,-0.8911,-0.8914,-0.8878,-0.8878,-0.8877,-0.8877,0,-0.9206,-0.9191,-0.919,-0.9154,-0.9139,-0.913,-0.9092,-0.908,-0.9058,-0.9033,-0.9016,-0.8985,-0.8958,-0.8952,-0.893,-0.8932,-0.8926,-0.8908,-0.8886,-0.8912,-0.8917,-0.8919,-0.8881,-0.8881,-0.888,-0.8879,0,0,-0.9267,-0.921,-0.9211,-0.9193,-0.9153,-0.914,-0.9129,-0.9102,-0.9093,-0.9067,-0.9056,-0.9029,-0.9011,-0.8993,-0.8968,-0.8964,-0.8982,-0.8945,-0.8944,-0.8954,-0.8983,-0.8998,-0.9001,-0.8966,-0.8966,-0.8966,-0.8985,0,-0.9291,-0.9269,-0.9236,-0.9225,-0.921,-0.9172,-0.9162,-0.9135,-0.9111,-0.9095,-0.9067,-0.9049,-0.9026,-0.9015,-0.901,-0.8981,-0.8987,-0.8979,-0.8955,-0.8955,-0.8966,-0.9004,-0.902,-0.904,-0.8987,-0.8988,-0.8988,0,-0.9317,-0.9293,-0.9281,-0.9241,-0.9233,-0.9225,-0.9197,-0.9182,-0.9151,-0.9133,-0.9113,-0.9086,-0.9071,-0.9051,-0.903,-0.9025,-0.9013,-0.8997,-0.8997,-0.8995,-0.8974,-0.9003,-0.9045,-0.9049,-0.8991,-0.8991,-0.899,0,-0.9363,-0.9328,-0.9316,-0.9302,-0.9255,-0.925,-0.923,-0.9198,-0.9184,-0.9159,-0.9149,-0.9123,-0.9109,-0.9089,-0.9054,-0.9043,-0.9037,-0.9014,-0.9022,-0.9023,-0.9024,-0.9024,-0.9066,-0.9015,-0.9015,-0.9015,-0.9014,0,-0.9394,-0.9388,-0.9336,-0.9329,-0.9321,-0.9282,-0.9274,-0.9251,-0.9222,-0.9209,-0.9174,-0.9162,-0.9117,-0.91,-0.9073,-0.906,-0.9053,-0.9039,-0.9032,-0.9042,-0.9044,-0.9035,-0.9033,-0.9015,-0.9015,-0.9015,-0.9015,0,-0.9445,-0.941,-0.9394,-0.935,-0.9339,-0.9335,-0.9297,-0.9288,-0.9261,-0.9245,-0.9239,-0.9197,-0.9175,-0.9138,-0.9105,-0.9087,-0.9079,-0.9066,-0.909,-0.9086,-0.9095,-0.9095,-0.9133,-0.9136,-0.9083,-0.9083,-0.9084,0,-0.9468,-0.9462,-0.9418,-0.9406,-0.9388,-0.937,-0.9355,-0.9316,-0.9301,-0.9265,-0.926,-0.9235,-0.9213,-0.918,-0.9146,-0.912,-0.9107,-0.9122,-0.9103,-0.9114,-0.9108,-0.9109,-0.9108,-0.9127,-0.9128,-0.9128,-0.9129,0,-0.9512,-0.9495,-0.9475,-0.9448,-0.9431,-0.9408,-0.9384,-0.9376,-0.9331,-0.9317,-0.9294,-0.9277,-0.9243,-0.9218,-0.9188,-0.9166,-0.914,-0.9135,-0.9135,-0.9147,-0.9161,-0.9154,-0.9102,-0.9134,-0.9134,-0.9133,-0.9133,-0.9133,-0.955,-0.9543,-0.951,-0.9489,-0.9466,-0.9444,-0.9433,-0.9404,-0.9385,-0.9354,-0.9332,-0.931,-0.9278,-0.9234,-0.9214,-0.9196,-0.9184,-0.9185,-0.9185,-0.9186,-0.919,-0.9163,-0.919,-0.9189,-0.9189,-0.9189,-0.9189,0,-0.9593,-0.957,-0.955,-0.9517,-0.95,-0.9476,-0.9447,-0.9434,-0.9416,-0.9388,-0.9367,-0.934,-0.9315,-0.9279,-0.9252,-0.9244,-0.9231,-0.9238,-0.9239,-0.9234,-0.9202,-0.9205,-0.9249,-0.9249,-0.9249,-0.9249,-0.9249,-0.9249,-0.9613,-0.9601,-0.9579,-0.9554,-0.953,-0.9509,-0.9495,-0.9473,-0.9451,-0.9422,-0.9402,-0.9378,-0.9347,-0.9316,-0.9293,-0.9282,-0.9274,-0.9285,-0.9272,-0.9242,-0.9237,-0.9232,-0.9234,-0.9284,-0.9284,-0.9305,-0.9306,-0.9306]},{"header":{"parameterUnit":"m.s-1","parameterCategory":1,"la1":30.2991,"la2":30.254,"lo1":-89.0895,"lo2":-89.0444,"dy":0.0017,"dx":0.0017,"nx":28,"ny":28,"refTime":"2024-05-17T21:00:00:Z","depth":0,"parameterNumber":3,"parameterNumberName":"V-component_of_WINDS"},"data":[0,0,0,0,0,0,0,0,0,0,0,0,0,0,0,0,0,0,0,0,0,0,0,0,0,0,0,0,0,0,0,0,0,0,0,0,0,0,0,0,0,0,0,0,0,0,0,0,0,0,0,0,0,0,0,0,0,0,-1.5721,-1.5721,0,-1.5768,-1.5768,-1.5769,-1.5772,-1.5771,-1.5771,-1.577,-1.5816,-1.5818,-1.582,0,0,0,0,0,0,0,0,0,0,0,0,0,-1.5632,-1.5633,-1.5721,-1.5721,-1.5722,-1.5768,-1.5768,-1.5769,-1.5772,-1.5771,-1.5771,-1.577,-1.5816,-1.5818,-1.582,0,0,0,0,0,0,0,0,0,0,0,0,0,-1.5674,-1.5634,-1.5721,-1.5729,-1.573,-1.5768,-1.5768,-1.5769,-1.5772,-1.5771,-1.577,-1.577,-1.5815,-1.5818,-1.582,-1.5852,0,0,-1.5828,-1.5829,0,0,0,0,0,0,0,0,-1.5671,-1.5677,-1.5727,-1.5729,-1.573,-1.5763,-1.5754,-1.5797,-1.5772,-1.5756,-1.577,-1.5769,-1.5799,-1.5803,-1.5814,-1.5854,-1.5856,-1.5828,-1.583,-1.5831,-1.5832,0,0,0,0,0,0,0,-1.5668,-1.5675,-1.5739,-1.5728,-1.573,-1.573,-1.5735,-1.5762,-1.5781,-1.5757,-1.5758,-1.5763,-1.58,-1.5811,-1.5815,-1.5857,-1.5828,-1.5831,-1.5832,-1.5833,-1.5926,-1.5927,0,0,0,0,0,0,-1.5664,-1.5672,-1.5738,-1.5741,-1.5698,-1.5732,-1.5738,-1.5753,-1.5781,-1.5785,-1.5764,-1.5763,-1.5807,-1.5812,-1.5816,-1.5856,-1.5831,-1.5833,-1.5835,-1.5925,-1.5926,-1.5927,0,0,0,0,0,0,-1.5662,-1.567,-1.5736,-1.5707,-1.5715,-1.5734,-1.5752,-1.5755,-1.5766,-1.5786,-1.5789,-1.5772,-1.5807,-1.5813,-1.5843,-1.5858,-1.5835,-1.5837,-1.5924,-1.5925,-1.5927,-1.5935,0,0,0,0,0,0,-1.566,-1.5669,-1.5682,-1.5707,-1.5717,-1.5763,-1.5753,-1.5756,-1.5771,-1.577,-1.5795,-1.5798,-1.5806,-1.5839,-1.5846,-1.5861,-1.5839,-1.5923,-1.5925,-1.5926,-1.5934,-1.5937,-1.5939,0,0,0,0,0,-1.5656,-1.5682,-1.5683,-1.5691,-1.5733,-1.5764,-1.5769,-1.5779,-1.5772,-1.5785,-1.5797,-1.5797,-1.5855,-1.5843,-1.585,-1.5866,-1.5922,-1.5924,-1.5926,-1.5933,-1.5936,-1.5939,0,0,0,0,0,0,-1.5658,-1.5686,-1.5687,-1.5721,-1.574,-1.5764,-1.5781,-1.5782,-1.5804,-1.5802,-1.5813,-1.5818,-1.5849,-1.586,-1.5846,-1.5898,-1.5887,-1.5891,-1.589,-1.5893,-1.5896,-1.5893,-1.5841,0,0,0,0,0,-1.5662,-1.5685,-1.5708,-1.5736,-1.5746,-1.5761,-1.5775,-1.5781,-1.5801,-1.5809,-1.5824,-1.5843,-1.5865,-1.588,-1.5901,-1.5935,-1.594,-1.5949,-1.5952,-1.5954,-1.5957,-1.5977,-1.5981,-1.5934,-1.5934,-1.5934,0,0,-1.5671,-1.5689,-1.5703,-1.5737,-1.5752,-1.5776,-1.5768,-1.5793,-1.581,-1.5812,-1.5843,-1.5854,-1.5876,-1.5908,-1.5923,-1.5919,-1.5971,-1.5957,-1.5958,-1.5961,-1.5979,-1.5984,-1.5988,-1.5935,-1.5935,-1.5935,0,0,-1.57,-1.5716,-1.5741,-1.5757,-1.5781,-1.5791,-1.5797,-1.5821,-1.5829,-1.586,-1.5862,-1.5882,-1.592,-1.5936,-1.5949,-1.5983,-1.5984,-1.5989,-1.6004,-1.6023,-1.6026,-1.603,-1.6043,-1.6047,-1.5992,-1.5992,-1.5992,0,-1.5708,-1.5744,-1.5754,-1.5779,-1.5794,-1.5797,-1.5823,-1.5838,-1.5867,-1.5877,-1.5871,-1.5919,-1.5934,-1.597,-1.5979,-1.5989,-1.5996,-1.5987,-1.6025,-1.6029,-1.6032,-1.6044,-1.6049,-1.5993,-1.5993,-1.5993,-1.5993,0,-1.5753,-1.5778,-1.5796,-1.5825,-1.5842,-1.5867,-1.588,-1.5896,-1.59,-1.5911,-1.5942,-1.5959,-1.5985,-1.5993,-1.5997,-1.6031,-1.6027,-1.6023,-1.6013,-1.6037,-1.6049,-1.6054,-1.5994,-1.5994,-1.5994,-1.5993,0,0,-1.5785,-1.582,-1.5826,-1.584,-1.5866,-1.5885,-1.591,-1.5935,-1.5949,-1.5968,-1.599,-1.6022,-1.6018,-1.6033,-1.6038,-1.6055,-1.6081,-1.6049,-1.6049,-1.6055,-1.612,-1.6123,-1.6129,-1.6081,-1.6082,-1.6083,-1.6118,0,-1.5818,-1.5864,-1.5874,-1.5913,-1.5936,-1.5939,-1.5961,-1.5979,-1.599,-1.601,-1.6021,-1.6044,-1.6038,-1.6046,-1.6062,-1.6075,-1.6095,-1.6072,-1.6102,-1.6103,-1.6098,-1.6135,-1.6139,-1.6171,-1.6123,-1.6124,-1.6124,0,-1.5863,-1.5884,-1.5927,-1.595,-1.596,-1.598,-1.6004,-1.6024,-1.6044,-1.605,-1.6066,-1.607,-1.6096,-1.6084,-1.6119,-1.6104,-1.6116,-1.6124,-1.6125,-1.6129,-1.6116,-1.6141,-1.6182,-1.6187,-1.6131,-1.6131,-1.613,0,-1.5883,-1.5922,-1.5953,-1.5964,-1.5992,-1.6006,-1.6018,-1.6037,-1.6052,-1.6073,-1.6083,-1.6106,-1.6119,-1.6136,-1.6146,-1.6136,-1.6181,-1.6169,-1.6187,-1.6187,-1.6198,-1.6197,-1.6242,-1.6203,-1.6203,-1.6203,-1.6203,0,-1.5919,-1.5945,-1.5963,-1.5982,-1.6011,-1.6021,-1.6049,-1.6061,-1.6078,-1.6099,-1.6102,-1.6121,-1.6132,-1.6153,-1.616,-1.6189,-1.6195,-1.62,-1.6202,-1.6201,-1.62,-1.621,-1.6209,-1.6205,-1.6204,-1.6204,-1.6204,0,-1.5947,-1.596,-1.5994,-1.6017,-1.6024,-1.6044,-1.6064,-1.6082,-1.6092,-1.6119,-1.6125,-1.6141,-1.6166,-1.6177,-1.6207,-1.6212,-1.6245,-1.6245,-1.6239,-1.624,-1.6257,-1.6256,-1.6311,-1.6319,-1.6274,-1.6275,-1.6275,0,-1.597,-1.5991,-1.6016,-1.6031,-1.6044,-1.6067,-1.6082,-1.6092,-1.6108,-1.6133,-1.6148,-1.6173,-1.6193,-1.6232,-1.6246,-1.6269,-1.627,-1.6288,-1.6274,-1.6272,-1.6272,-1.6271,-1.6273,-1.6291,-1.6291,-1.6292,-1.6292,0,-1.601,-1.6015,-1.6038,-1.6063,-1.6081,-1.6101,-1.612,-1.6131,-1.6144,-1.6162,-1.6187,-1.6203,-1.6234,-1.6259,-1.6283,-1.6294,-1.6296,-1.6296,-1.6302,-1.6301,-1.6297,-1.63,-1.6247,-1.6295,-1.6295,-1.6294,-1.6294,-1.6294,-1.6037,-1.6055,-1.6077,-1.6102,-1.6117,-1.6135,-1.6154,-1.6166,-1.6188,-1.6215,-1.6219,-1.6246,-1.6266,-1.6298,-1.631,-1.6332,-1.6327,-1.6335,-1.6337,-1.6339,-1.6341,-1.6293,-1.6336,-1.6336,-1.6335,-1.6335,-1.6335,0,-1.6078,-1.6092,-1.6114,-1.6142,-1.6161,-1.616,-1.6182,-1.6198,-1.6222,-1.6241,-1.6261,-1.629,-1.6314,-1.633,-1.6354,-1.6367,-1.6369,-1.6374,-1.6373,-1.6376,-1.6343,-1.6336,-1.6372,-1.6372,-1.6372,-1.6372,-1.6372,-1.6372,-1.6102,-1.6133,-1.6141,-1.6179,-1.6193,-1.622,-1.6232,-1.6249,-1.6264,-1.6297,-1.6317,-1.6327,-1.6344,-1.6369,-1.6391,-1.6395,-1.6404,-1.6409,-1.6413,-1.6382,-1.6378,-1.6375,-1.6368,-1.6411,-1.6411,-1.6444,-1.6445,-1.6445]}]]